Weather History for Owosso, MI

Change the Weather History Date:

Saturday, December 15, 2012

  Actual Average (KFNT) Record (KFNT)
Temperature  
Mean Temperature 38 °F 27 °F  
Max Temperature 44 °F 34 °F 60 °F (1971)
Min Temperature 32 °F 21 °F -3 °F (1989)
Degree Days  
Heating Degree Days 27 38  
Month to date heating degree days 527  
Since 1 July heating degree days 2008  
Cooling Degree Days 0 0  
Month to date cooling degree days 0  
Year to date cooling degree days 531  
Moisture  
Dew Point 34 °F    
Average Humidity 84    
Maximum Humidity 94    
Minimum Humidity 65    
Precipitation  
Precipitation 0.00 in 0.06 in 1.74 in (1971)
Month to date precipitation 0.99  
Year to date precipitation 30.44  
Snow  
Snow 0.00 in 0.40 in 4.60 in (2005)
Month to date snowfall 5.2  
Since 1 July snowfall 8.1  
Snow Depth -    
Sea Level Pressure  
Sea Level Pressure 29.94 in    
Wind  
Wind Speed 6 mph (ESE)    
Max Wind Speed 16 mph    
Max Gust Speed 22 mph    
Visibility 6 miles    
Events      
T = Trace of Precipitation, MM = Missing Value Source: NWS Daily Summary

Daily Weather History Graph

Daily Weather History Graph

Search for Another Location

Airport:

Trip Planner

Search our weather history database for the weather conditions in past years. The results will help you decide how hot, cold, wet, or windy it might be!

Date:

Astronomy

Dec. 15, 2012 Rise Set
Actual Time 8:01 AM EST 5:02 PM EST
Civil Twilight 7:28 AM EST 5:35 PM EST
Nautical Twilight 6:53 AM EST 6:10 PM EST
Astronomical Twilight 6:18 AM EST 6:45 PM EST
Moon 9:50 AM EST (12/15) 8:08 PM EST (12/15)
Length of Visible Light 10h 06m
Length of Day
9h 01m
Waxing Crescent, 8% of the Moon is Illuminated
Dec 15
Waxing Crescent
Dec 20
First Quarter
Dec 28
Full
Jan 4
Last Quarter
Jan 11
New

Hourly Weather History & Observations

Time (EST) Temp. Windchill Dew Point Humidity Pressure Visibility Wind Dir Wind Speed Gust Speed Precip Events Conditions
12:15 AM 32.9 °F 29.8 °F 30.0 °F 89% 30.16 in 7.0 mi East 3.5 mph - N/A   Clear
12:35 AM 32.2 °F - 29.7 °F 90% 30.15 in 7.0 mi Calm Calm - N/A   Clear
12:55 AM 32.0 °F 28.7 °F 29.3 °F 90% 30.16 in 5.0 mi ESE 3.5 mph - N/A   Clear
1:15 AM 32.0 °F 28.7 °F 29.7 °F 91% 30.15 in 5.0 mi ESE 3.5 mph - N/A   Clear
1:35 AM 32.0 °F 27.5 °F 30.2 °F 93% 30.15 in 5.0 mi East 4.6 mph - N/A   Clear
1:55 AM 32.0 °F 28.7 °F 30.0 °F 92% 30.15 in 5.0 mi East 3.5 mph - N/A   Clear
2:15 AM 32.0 °F 27.5 °F 30.0 °F 92% 30.15 in 5.0 mi East 4.6 mph - N/A   Clear
2:35 AM 32.4 °F 26.9 °F 30.7 °F 94% 30.15 in 5.0 mi ESE 5.8 mph - N/A   Clear
2:55 AM 32.0 °F 27.5 °F 30.2 °F 93% 30.14 in 5.0 mi ESE 4.6 mph - N/A   Clear
3:15 AM 32.2 °F 26.7 °F 30.6 °F 94% 30.14 in 5.0 mi ESE 5.8 mph - N/A   Clear
3:35 AM 32.4 °F 27.9 °F 30.7 °F 94% 30.14 in 5.0 mi ESE 4.6 mph - N/A   Clear
3:55 AM 32.7 °F 28.3 °F 30.9 °F 93% 30.13 in 5.0 mi East 4.6 mph - N/A   Clear
4:15 AM 32.9 °F 29.8 °F 31.1 °F 93% 30.13 in 5.0 mi ESE 3.5 mph - N/A   Clear
4:35 AM 32.9 °F 28.5 °F 30.9 °F 92% 30.12 in 5.0 mi East 4.6 mph - N/A   Clear
4:55 AM 32.9 °F 29.8 °F 30.9 °F 92% 30.11 in 5.0 mi ESE 3.5 mph - N/A   Clear
5:15 AM 32.4 °F 29.1 °F 30.4 °F 92% 30.11 in 5.0 mi ESE 3.5 mph - N/A   Clear
5:35 AM 32.0 °F - 30.0 °F 92% 30.11 in 5.0 mi Calm Calm - N/A   Clear
5:55 AM 32.0 °F 28.7 °F 30.0 °F 92% 30.11 in 5.0 mi East 3.5 mph - N/A   Clear
6:15 AM 32.9 °F 29.8 °F 31.3 °F 94% 30.11 in 5.0 mi East 3.5 mph - N/A   Clear
6:35 AM 33.1 °F 30.0 °F 31.3 °F 93% 30.11 in 4.0 mi ESE 3.5 mph - N/A   Clear
6:55 AM 32.9 °F 29.8 °F 31.3 °F 94% 30.11 in 4.0 mi East 3.5 mph - N/A   Clear
7:15 AM 33.3 °F 28.9 °F 31.8 °F 94% 30.11 in 4.0 mi East 4.6 mph - N/A   Clear
7:35 AM 34.2 °F 28.2 °F 32.2 °F 92% 30.10 in 4.0 mi ESE 6.9 mph - N/A   Clear
7:55 AM 34.7 °F 29.6 °F 32.9 °F 93% 30.09 in 4.0 mi ESE 5.8 mph - N/A   Clear
8:15 AM 34.7 °F 29.6 °F 32.9 °F 93% 30.08 in 3.0 mi ESE 5.8 mph - N/A   Clear
8:35 AM 35.2 °F 29.5 °F 33.4 °F 93% 30.07 in 2.5 mi ESE 6.9 mph - N/A   Clear
8:55 AM 35.6 °F 30.7 °F 33.8 °F 93% 30.07 in 2.5 mi ESE 5.8 mph - N/A   Clear
9:15 AM 36.0 °F 30.3 °F 34.2 °F 93% 30.06 in 2.5 mi ESE 6.9 mph - N/A   Mostly Cloudy
9:35 AM 36.7 °F 29.9 °F 34.7 °F 93% 30.05 in 3.0 mi East 9.2 mph - N/A   Mostly Cloudy
9:55 AM 37.4 °F 31.4 °F 35.1 °F 91% 30.04 in 3.0 mi ESE 8.1 mph - N/A   Mostly Cloudy
10:15 AM 38.3 °F 30.9 °F 35.6 °F 90% 30.02 in 4.0 mi ESE 11.5 mph - N/A   Mostly Cloudy
10:35 AM 38.7 °F 31.8 °F 35.6 °F 89% 30.01 in 5.0 mi ESE 10.4 mph - N/A   Mostly Cloudy
10:55 AM 39.7 °F 34.9 °F 35.8 °F 86% 30.02 in 5.0 mi ESE 6.9 mph - N/A   Overcast
11:15 AM 41.0 °F 35.8 °F 35.4 °F 81% 30.02 in 7.0 mi ESE 8.1 mph - N/A   Overcast
11:35 AM 41.2 °F 35.5 °F 34.7 °F 78% 30.00 in 7.0 mi ESE 9.2 mph - N/A   Overcast
11:55 AM 41.9 °F 37.5 °F 34.5 °F 75% 29.99 in 10.0 mi SE 6.9 mph - N/A   Overcast
12:15 PM 42.1 °F 37.1 °F 33.8 °F 72% 29.96 in 10.0 mi ESE 8.1 mph - N/A   Overcast
12:35 PM 42.3 °F 36.8 °F 32.9 °F 69% 29.95 in 10.0 mi SE 9.2 mph - N/A   Overcast
12:55 PM 42.1 °F 35.7 °F 32.7 °F 69% 29.92 in 10.0 mi ESE 11.5 mph - N/A   Overcast
1:15 PM 41.9 °F 36.9 °F 33.1 °F 71% 29.91 in 10.0 mi ESE 8.1 mph - N/A   Overcast
1:35 PM 42.1 °F 37.7 °F 33.1 °F 70% 29.91 in 10.0 mi SE 6.9 mph - N/A   Overcast
1:55 PM 41.9 °F 36.3 °F 32.9 °F 70% 29.92 in 5.0 mi SE 9.2 mph - N/A   Unknown
2:15 PM 41.5 °F 37.1 °F 33.6 °F 73% 29.90 in 4.0 mi ESE 6.9 mph - N/A   Unknown
2:35 PM 41.7 °F 36.1 °F 35.1 °F 77% 29.87 in 7.0 mi East 9.2 mph - N/A   Overcast
2:55 PM 41.9 °F 36.9 °F 34.9 °F 76% 29.85 in 10.0 mi East 8.1 mph - N/A   Overcast
3:15 PM 42.3 °F 37.3 °F 35.2 °F 76% 29.85 in 10.0 mi ESE 8.1 mph - N/A   Overcast
3:35 PM 42.3 °F 37.3 °F 35.6 °F 77% 29.84 in 10.0 mi East 8.1 mph - N/A   Overcast
3:55 PM 42.4 °F 37.0 °F 35.6 °F 77% 29.83 in 10.0 mi East 9.2 mph - N/A   Overcast
4:15 PM 42.8 °F 36.6 °F 34.5 °F 73% 29.81 in 10.0 mi East 11.5 mph - N/A   Overcast
4:35 PM 42.8 °F 36.2 °F 34.3 °F 72% 29.81 in 10.0 mi ESE 12.7 mph - N/A   Overcast
4:55 PM 42.6 °F 35.9 °F 34.3 °F 73% 29.80 in 10.0 mi ESE 12.7 mph - N/A   Overcast
5:15 PM 42.4 °F 36.1 °F 34.3 °F 73% 29.79 in 10.0 mi ESE 11.5 mph - N/A   Overcast
5:35 PM 42.8 °F 37.0 °F 34.0 °F 71% 29.77 in 10.0 mi ESE 10.4 mph - N/A   Overcast
5:55 PM 42.8 °F 37.5 °F 33.8 °F 70% 29.77 in 10.0 mi SE 9.2 mph - N/A   Overcast
6:15 PM 43.7 °F 36.3 °F 32.7 °F 65% 29.76 in 10.0 mi SE 16.1 mph 21.9 mph N/A   Overcast
6:35 PM 43.7 °F 37.3 °F 33.4 °F 67% 29.75 in 10.0 mi SE 12.7 mph 20.7 mph N/A   Overcast
6:55 PM 43.9 °F 37.9 °F 33.4 °F 67% 29.74 in 10.0 mi SE 11.5 mph - N/A   Overcast
7:15 PM 44.6 °F 38.4 °F 33.8 °F 66% 29.74 in 10.0 mi SE 12.7 mph 20.7 mph N/A   Overcast
7:35 PM 44.4 °F 37.9 °F 34.2 °F 67% 29.74 in 10.0 mi SE 13.8 mph 19.6 mph N/A   Overcast
7:55 PM 44.6 °F 38.8 °F 34.7 °F 68% 29.73 in 10.0 mi SE 11.5 mph 16.1 mph N/A   Overcast
8:15 PM 43.9 °F 37.2 °F 36.1 °F 74% 29.72 in 7.0 mi SE 13.8 mph 18.4 mph N/A   Unknown
8:35 PM 43.2 °F 36.6 °F 37.9 °F 82% 29.71 in 7.0 mi SE 12.7 mph - N/A   Overcast
8:55 PM 42.8 °F 36.2 °F 39.0 °F 86% 29.70 in 3.0 mi SE 12.7 mph 16.1 mph N/A   Overcast
9:15 PM 42.4 °F 36.1 °F 39.4 °F 89% 29.69 in 3.0 mi SE 11.5 mph 17.3 mph N/A   Overcast
9:35 PM 42.4 °F 36.5 °F 39.7 °F 90% 29.69 in 4.0 mi SE 10.4 mph - N/A   Overcast
9:55 PM 42.6 °F 36.8 °F 40.1 °F 91% 29.68 in 4.0 mi SE 10.4 mph 16.1 mph N/A   Overcast
10:15 PM 42.8 °F 37.0 °F 40.1 °F 90% 29.67 in 4.0 mi SSE 10.4 mph 16.1 mph N/A   Overcast
10:35 PM 42.8 °F 37.0 °F 40.1 °F 90% 29.67 in 4.0 mi SSE 10.4 mph - N/A   Overcast
10:55 PM 43.0 °F 38.2 °F 40.6 °F 91% 29.66 in 5.0 mi SE 8.1 mph - N/A   Overcast
11:15 PM 43.2 °F 37.9 °F 40.8 °F 91% 29.65 in 7.0 mi SSE 9.2 mph - N/A   Overcast
11:35 PM 43.5 °F 38.9 °F 41.0 °F 91% 29.65 in 5.0 mi SSE 8.1 mph - N/A   Overcast
11:55 PM 43.9 °F 39.3 °F 41.5 °F 91% 29.64 in 4.0 mi SSE 8.1 mph - N/A   Overcast